GW4137 Weather Reports


Display with metric or nautical units.
time (UTC)temp
F
wind
direction
speed
MPH
gust
MPH
rain 1hr
in
rain 24hr
in
rain mn
in
humidity
%
barometer
mb
20260902123057 56 0 0.0 0.0 0.00 0.00 0.00 62 1007.0
20260902121608 55 0 0.0 5.0 0.00 0.00 0.00 63 1006.8
20260902120051 56 238 3.0 5.0 0.00 0.00 0.00 62 1006.7
20260902114622 57 236 2.0 4.0 0.00 0.00 0.00 60 1006.9
20260902113107 57 236 5.0 10.0 0.00 0.00 0.00 60 1007.2
20260902111604 55 171 3.0 6.0 0.00 0.00 0.00 64 1007.3
20260902110118 54 167 4.0 8.0 0.00 0.00 0.00 67 1007.5
20260902104602 52 130 3.0 7.0 0.00 0.00 0.00 72 1007.5
20260902103059 47 111 3.0 6.0 0.00 0.00 0.00 76 1007.8
20260902101601 47 0 0.0 0.0 0.00 0.00 0.00 74 1007.4
20260902100112 48 0 0.0 0.0 0.00 0.00 0.00 72 1007.4
20260902094558 49 0 0.0 2.0 0.00 0.00 0.00 70 1007.5
20260902093055 49 107 0.0 3.0 0.00 0.00 0.00 70 1007.3
20260902091555 50 0 0.0 2.0 0.00 0.00 0.00 68 1007.4
20260902090059 51 107 1.0 7.0 0.00 0.00 0.00 67 1007.4
20260902084617 51 113 3.0 6.0 0.00 0.00 0.00 65 1007.7
20260902083052 52 113 2.0 3.0 0.00 0.00 0.00 63 1007.7
20260902081601 53 113 1.0 4.0 0.00 0.00 0.00 60 1007.8
20260902080059 56 113 2.0 4.0 0.00 0.00 0.00 57 1007.9
20260902074553 57 0 0.0 0.0 0.00 0.00 0.00 55 1007.8
20260902073054 59 0 0.0 2.0 0.00 0.00 0.00 52 1007.8
20260902071605 60 113 2.0 3.0 0.00 0.00 0.00 51 1007.7
20260902070058 62 113 2.0 4.0 0.00 0.00 0.00 48 1007.6
20260902064602 64 113 0.0 3.0 0.00 0.00 0.00 46 1007.7
20260902063102 64 113 2.0 8.0 0.00 0.00 0.00 45 1007.9
20260902060106 63 0 0.0 3.0 0.00 0.00 0.00 46 1008.1
20260902054553 63 119 2.0 8.0 0.00 0.00 0.00 47 1008.0
20260902053059 62 0 1.0 3.0 0.00 0.00 0.00 49 1008.2
20260902051553 61 119 2.0 4.0 0.00 0.00 0.00 50 1008.1
20260902050121 60 0 0.0 0.0 0.00 0.00 0.00 50 1008.0
20260902044559 60 0 0.0 2.0 0.00 0.00 0.00 49 1007.9
20260902043104 62 119 0.0 2.0 0.00 0.00 0.00 47 1008.1
20260902041552 61 0 0.0 2.0 0.00 0.00 0.00 47 1008.1
20260902040054 64 0 0.0 0.0 0.00 0.00 0.00 42 1008.1
20260902034604 64 0 0.0 2.0 0.00 0.00 0.00 41 1008.3
20260902033056 64 0 0.0 0.0 0.00 0.00 0.00 40 1008.3
20260902031554 67 119 1.0 3.0 0.00 0.00 0.00 37 1008.3
20260902030052 67 119 3.0 6.0 0.00 0.00 0.00 37 1008.3
20260902024555 66 0 0.0 0.0 0.00 0.00 0.00 36 1008.1
20260902023055 67 0 0.0 0.0 0.00 0.00 0.00 35 1008.1
20260902021551 69 0 0.0 3.0 0.00 0.00 0.00 33 1008.1
20260902020057 70 0 0.0 0.0 0.00 0.00 0.00 32 1008.2
20260902014552 75 119 1.0 3.0 0.00 0.00 0.00 28 1008.1
20260902013051 79 119 1.0 6.0 0.00 0.00 0.00 25 1008.1
20260902011601 80 119 5.0 9.0 0.00 0.00 0.00 24 1008.2
20260902010105 81 117 5.0 10.0 0.00 0.00 0.00 24 1008.2
20260902004553 81 119 8.0 13.0 0.00 0.00 0.00 24 1008.2
20260902003101 82 146 7.0 12.0 0.00 0.00 0.00 24 1008.2
20260902001610 82 140 10.0 16.0 0.00 0.00 0.00 24 1008.2
20260902000056 83 144 8.0 13.0 0.00 0.00 0.00 21 1008.3
20260901234552 84 106 7.0 11.0 0.00 0.00 0.00 23 1008.3
20260901233057 83 157 4.0 12.0 0.00 0.00 0.00 21 1008.5
20260901231552 83 128 6.0 14.0 0.00 0.00 0.00 21 1008.6
20260901230053 83 181 6.0 11.0 0.00 0.00 0.00 21 1008.8
20260901224604 83 113 7.0 14.0 0.00 0.00 0.00 22 1008.9
20260901223055 83 153 3.0 10.0 0.00 0.00 0.00 22 1009.2
20260901221604 82 178 8.0 11.0 0.00 0.00 0.00 23 1009.2
20260901220057 82 150 2.0 14.0 0.00 0.00 0.00 24 1009.4
20260901214601 82 142 6.0 11.0 0.00 0.00 0.00 24 1009.6
20260901213058 82 67 2.0 9.0 0.00 0.00 0.00 24 1009.8
20260901211600 82 153 4.0 12.0 0.00 0.00 0.00 25 1010.0
20260901210112 80 138 0.0 11.0 0.00 0.00 0.00 25 1010.2
20260901204551 81 176 8.0 14.0 0.00 0.00 0.00 25 1010.4
20260901203102 80 172 7.0 13.0 0.00 0.00 0.00 26 1010.5
20260901201554 80 141 6.0 12.0 0.00 0.00 0.00 26 1010.7
20260901200056 79 159 3.0 11.0 0.00 0.00 0.00 26 1010.8
20260901194555 79 155 5.0 13.0 0.00 0.00 0.00 26 1011.0
20260901193054 78 160 5.0 14.0 0.00 0.00 0.00 27 1011.2
20260901191602 78 189 5.0 14.0 0.00 0.00 0.00 28 1011.2
20260901190059 77 115 8.0 16.0 0.00 0.00 0.00 28 1011.5
20260901184605 77 182 7.0 16.0 0.00 0.00 0.00 28 1011.6
20260901183105 76 180 9.0 17.0 0.00 0.00 0.00 30 1011.8
20260901181552 75 126 9.0 17.0 0.00 0.00 0.00 31 1012.0
20260901180059 75 152 8.0 15.0 0.00 0.00 0.00 32 1012.1
20260901174554 74 144 9.0 15.0 0.00 0.00 0.00 33 1012.2
20260901173055 73 157 9.0 17.0 0.00 0.00 0.00 35 1012.3
20260901171603 72 131 10.0 15.0 0.00 0.00 0.00 35 1012.6
20260901170056 71 162 11.0 15.0 0.00 0.00 0.00 36 1012.8
20260901164555 69 117 9.0 14.0 0.00 0.00 0.00 40 1012.7
20260901163057 67 151 10.0 15.0 0.00 0.00 0.00 42 1012.9
20260901161617 67 135 9.0 14.0 0.00 0.00 0.00 43 1012.9
20260901160104 66 118 8.0 14.0 0.00 0.00 0.00 44 1012.8
20260901154615 65 131 9.0 15.0 0.00 0.00 0.00 46 1012.8
20260901153109 65 123 11.0 15.0 0.00 0.00 0.00 47 1012.9
20260901151551 63 122 10.0 14.0 0.00 0.00 0.00 49 1012.9
20260901150109 63 138 8.0 13.0 0.00 0.00 0.00 51 1013.2
20260901144555 61 140 7.0 12.0 0.00 0.00 0.00 54 1013.3
20260901143108 60 140 6.0 10.0 0.00 0.00 0.00 57 1013.1
20260901141604 57 160 3.0 5.0 0.00 0.00 0.00 63 1013.1
20260901140100 56 160 3.0 5.0 0.00 0.00 0.00 65 1013.0
20260901134554 53 160 0.0 5.0 0.00 0.00 0.00 70 1012.8
20260901133104 51 160 2.0 4.0 0.00 0.00 0.00 72 1012.5
20260901131557 50 0 0.0 4.0 0.00 0.00 0.00 75 1012.4
20260901130059 49 160 3.0 5.0 0.00 0.00 0.00 74 1012.6
20260901124554 47 160 2.0 5.0 0.00 0.00 0.00 78 1012.8